When you browse on this site, cookies collect data to enhance your experience and personalize the content and advertising you see.
Visit our Privacy Policy to learn more. By continuing to use the site, you agree to this use of cookies and data.
  • In Hungary
  • List of Countries
  • For 7 days
  • Water Temperature
  • Weather Map
  • News
  • Weather Widgets
  • user-avatar
    Login

    Hourly Weather Valuevo

    Today, 23 October, Wednesday

    Time Temperature Precipitation Wind Pressure Humidity
    00:00 +15°C° 0 mm 0 mps 763 mmHg 55%
    01:00 +14°C° 0 mm 0 mps 763 mmHg 57%
    02:00 +14°C° 0 mm 0 mps 763 mmHg 59%
    03:00 +13°C° 0 mm 0 mps 763 mmHg 61%
    04:00 +14°C° 0 mm 1 mps 763 mmHg 62%
    05:00 +14°C° 0 mm 1 mps 763 mmHg 64%
    06:00 +13°C° 0 mm 1 mps 763 mmHg 65%
    07:00 +14°C° 0 mm 1 mps 763 mmHg 63%
    08:00 +15°C° 0 mm 1 mps 763 mmHg 60%
    09:00 +16°C° 0 mm 1 mps 764 mmHg 57%
    10:00 +18°C° 0 mm 1 mps 763 mmHg 53%
    11:00 +20°C° 0 mm 1 mps 763 mmHg 49%
    12:00 +21°C° 0 mm 1 mps 763 mmHg 45%
    13:00 +21°C° 0 mm 1 mps 763 mmHg 44%
    14:00 +22°C° 0 mm 1 mps 763 mmHg 43%
    15:00 +22°C° 0 mm 1 mps 763 mmHg 42%
    16:00 +21°C° 0 mm 1 mps 762 mmHg 45%
    17:00 +20°C° 0 mm 1 mps 762 mmHg 48%
    18:00 +17°C° 0 mm 0 mps 762 mmHg 52%
    19:00 +17°C° 0 mm 0 mps 762 mmHg 53%
    20:00 +16°C° 0 mm 0 mps 762 mmHg 54%
    21:00 +16°C° 0 mm 0 mps 762 mmHg 56%
    22:00 +15°C° 0 mm 0 mps 762 mmHg 57%
    23:00 +15°C° 0 mm 0 mps 762 mmHg 58%

    Tomorrow, 24 October, Thursday

    Time Temperature Precipitation Wind Pressure Humidity
    00:00 +16°C° 0 mm 1 mps 762 mmHg 60%
    01:00 +15°C° 0 mm 1 mps 762 mmHg 61%
    02:00 +14°C° 0 mm 0 mps 762 mmHg 62%
    03:00 +14°C° 0 mm 0 mps 762 mmHg 63%
    04:00 +13°C° 0 mm 0 mps 762 mmHg 64%
    05:00 +13°C° 0 mm 0 mps 761 mmHg 64%
    06:00 +13°C° 0 mm 0 mps 761 mmHg 65%
    07:00 +14°C° 0 mm 0 mps 761 mmHg 62%
    08:00 +16°C° 0 mm 1 mps 762 mmHg 59%
    09:00 +16°C° 0 mm 1 mps 762 mmHg 57%
    10:00 +19°C° 0 mm 1 mps 761 mmHg 53%
    11:00 +19°C° 0 mm 2 mps 761 mmHg 49%
    12:00 +20°C° 0 mm 2 mps 761 mmHg 45%
    13:00 +20°C° 0 mm 2 mps 761 mmHg 44%
    14:00 +21°C° 0 mm 2 mps 761 mmHg 43%
    15:00 +21°C° 0 mm 2 mps 760 mmHg 41%
    16:00 +20°C° 0 mm 2 mps 760 mmHg 45%
    17:00 +19°C° 0 mm 2 mps 760 mmHg 49%
    18:00 +18°C° 0 mm 1 mps 760 mmHg 53%
    19:00 +18°C° 0 mm 1 mps 760 mmHg 54%
    20:00 +18°C° 0 mm 1 mps 760 mmHg 54%
    21:00 +18°C° 0 mm 1 mps 760 mmHg 55%
    22:00 +16°C° 0 mm 1 mps 760 mmHg 56%
    23:00 +16°C° 0 mm 1 mps 760 mmHg 57%

    Day after tomorrow, 25 October, Friday

    Time Temperature Precipitation Wind Pressure Humidity
    00:00 +16°C° 0 mm 1 mps 760 mmHg 59%
    01:00 +15°C° 0 mm 1 mps 760 mmHg 61%
    02:00 +15°C° 0 mm 1 mps 760 mmHg 63%
    03:00 +14°C° 0 mm 1 mps 760 mmHg 65%
    04:00 +14°C° 0 mm 1 mps 760 mmHg 67%
    05:00 +13°C° 0 mm 0 mps 760 mmHg 68%
    06:00 +12°C° 0 mm 0 mps 760 mmHg 70%
    07:00 +14°C° 0 mm 1 mps 760 mmHg 66%
    08:00 +15°C° 0 mm 1 mps 760 mmHg 63%
    09:00 +16°C° 0 mm 1 mps 760 mmHg 59%
    10:00 +18°C° 0 mm 1 mps 760 mmHg 55%
    11:00 +20°C° 0 mm 1 mps 760 mmHg 51%
    12:00 +21°C° 0 mm 1 mps 760 mmHg 47%
    13:00 +21°C° 0 mm 1 mps 760 mmHg 46%
    14:00 +22°C° 0 mm 1 mps 760 mmHg 45%
    15:00 +22°C° 0 mm 1 mps 760 mmHg 44%
    16:00 +21°C° 0 mm 1 mps 760 mmHg 46%
    17:00 +20°C° 0 mm 1 mps 760 mmHg 49%
    18:00 +19°C° 0 mm 1 mps 760 mmHg 52%
    19:00 +17°C° 0 mm 2 mps 760 mmHg 52%
    20:00 +17°C° 0 mm 2 mps 760 mmHg 53%
    21:00 +16°C° 0 mm 2 mps 761 mmHg 53%
    22:00 +16°C° 0 mm 2 mps 761 mmHg 55%
    23:00 +15°C° 0 mm 2 mps 761 mmHg 58%

    26 October, Saturday

    Time Temperature Precipitation Wind Pressure Humidity
    00:00 +14°C° 0 mm 2 mps 761 mmHg 60%
    01:00 +14°C° 0 mm 2 mps 761 mmHg 62%
    02:00 +13°C° 0 mm 2 mps 761 mmHg 64%
    03:00 +13°C° 0 mm 2 mps 761 mmHg 65%
    04:00 +13°C° 0 mm 2 mps 761 mmHg 67%
    05:00 +12°C° 0 mm 2 mps 761 mmHg 68%
    06:00 +12°C° 0 mm 2 mps 761 mmHg 69%
    07:00 +13°C° 0 mm 2 mps 762 mmHg 66%
    08:00 +13°C° 0 mm 2 mps 762 mmHg 62%
    09:00 +14°C° 0 mm 2 mps 762 mmHg 59%
    10:00 +16°C° 0 mm 3 mps 762 mmHg 54%
    11:00 +17°C° 0 mm 3 mps 762 mmHg 50%
    12:00 +19°C° 0 mm 3 mps 762 mmHg 45%
    13:00 +19°C° 0 mm 2 mps 762 mmHg 44%
    14:00 +20°C° 0 mm 2 mps 761 mmHg 42%
    15:00 +20°C° 0 mm 2 mps 761 mmHg 41%
    16:00 +19°C° 0 mm 2 mps 761 mmHg 44%
    17:00 +18°C° 0 mm 2 mps 761 mmHg 47%
    18:00 +17°C° 0 mm 2 mps 761 mmHg 50%
    19:00 +16°C° 0 mm 2 mps 761 mmHg 51%
    20:00 +16°C° 0 mm 1 mps 761 mmHg 52%
    21:00 +15°C° 0 mm 1 mps 761 mmHg 53%
    22:00 +15°C° 0 mm 1 mps 761 mmHg 54%
    23:00 +15°C° 0 mm 1 mps 761 mmHg 55%

    27 October, Sunday

    Time Temperature Precipitation Wind Pressure Humidity
    00:00 +14°C° 0 mm 1 mps 761 mmHg 56%
    01:00 +14°C° 0 mm 1 mps 761 mmHg 58%
    02:00 +14°C° 0 mm 1 mps 761 mmHg 60%
    03:00 +13°C° 0 mm 1 mps 761 mmHg 62%
    04:00 +13°C° 0 mm 1 mps 761 mmHg 63%
    05:00 +13°C° 0 mm 1 mps 761 mmHg 65%
    06:00 +13°C° 0 mm 1 mps 761 mmHg 67%
    07:00 +14°C° 0 mm 1 mps 761 mmHg 64%
    08:00 +14°C° 0 mm 1 mps 761 mmHg 61%
    09:00 +15°C° 0 mm 2 mps 761 mmHg 58%
    10:00 +17°C° 0 mm 2 mps 760 mmHg 55%
    11:00 +19°C° 0 mm 1 mps 760 mmHg 52%
    12:00 +20°C° 0 mm 1 mps 760 mmHg 50%
    13:00 +20°C° 0 mm 2 mps 760 mmHg 48%
    14:00 +20°C° 0 mm 2 mps 759 mmHg 47%
    15:00 +21°C° 0 mm 2 mps 759 mmHg 46%
    16:00 +21°C° 0 mm 1 mps 759 mmHg 50%
    17:00 +19°C° 0 mm 1 mps 758 mmHg 54%
    18:00 +18°C° 0 mm 1 mps 758 mmHg 58%
    19:00 +18°C° 0 mm 1 mps 758 mmHg 60%
    20:00 +16°C° 0 mm 1 mps 758 mmHg 62%
    21:00 +16°C° 0 mm 1 mps 758 mmHg 64%
    22:00 +15°C° 0 mm 1 mps 758 mmHg 65%
    23:00 +15°C° 0 mm 1 mps 757 mmHg 66%

    28 October, Monday

    Time Temperature Precipitation Wind Pressure Humidity
    00:00 +14°C° 0 mm 1 mps 757 mmHg 67%
    01:00 +14°C° 0 mm 1 mps 757 mmHg 68%
    02:00 +14°C° 0 mm 1 mps 757 mmHg 68%
    03:00 +13°C° 0 mm 2 mps 756 mmHg 68%
    04:00 +13°C° 0 mm 2 mps 756 mmHg 69%
    05:00 +13°C° 0 mm 2 mps 756 mmHg 69%
    06:00 +12°C° 0 mm 2 mps 756 mmHg 70%
    07:00 +12°C° 0 mm 3 mps 756 mmHg 67%
    08:00 +13°C° 0 mm 3 mps 756 mmHg 65%
    09:00 +14°C° 0 mm 3 mps 756 mmHg 63%
    10:00 +15°C° 0 mm 4 mps 756 mmHg 59%
    11:00 +17°C° 0 mm 4 mps 755 mmHg 55%
    12:00 +18°C° 0 mm 4 mps 755 mmHg 51%
    13:00 +19°C° 0 mm 5 mps 755 mmHg 51%
    14:00 +19°C° 0 mm 5 mps 755 mmHg 50%
    15:00 +19°C° 0 mm 5 mps 754 mmHg 50%
    16:00 +18°C° 0 mm 4 mps 754 mmHg 54%
    17:00 +17°C° 0 mm 4 mps 754 mmHg 58%
    18:00 +15°C° 0 mm 4 mps 754 mmHg 62%
    19:00 +16°C° 0 mm 3 mps 754 mmHg 64%
    20:00 +16°C° 0 mm 3 mps 754 mmHg 67%
    21:00 +14°C° 0 mm 3 mps 754 mmHg 69%
    22:00 +14°C° 0.2 mm 3 mps 754 mmHg 73%
    23:00 +13°C° 0.2 mm 3 mps 754 mmHg 76%

    29 October, Tuesday

    Time Temperature Precipitation Wind Pressure Humidity
    00:00 +13°C° 0.2 mm 3 mps 754 mmHg 80%
    01:00 +12°C° 0.5 mm 3 mps 754 mmHg 81%
    02:00 +11°C° 0.5 mm 3 mps 754 mmHg 82%
    03:00 +11°C° 0.5 mm 3 mps 753 mmHg 84%
    04:00 +10°C° 0.8 mm 3 mps 753 mmHg 82%
    05:00 +10°C° 0.8 mm 3 mps 753 mmHg 81%
    06:00 +9°C° 0.8 mm 3 mps 753 mmHg 79%
    07:00 +8°C° 0.1 mm 4 mps 753 mmHg 73%
    08:00 +10°C° 0.1 mm 4 mps 754 mmHg 66%
    09:00 +10°C° 0.1 mm 4 mps 754 mmHg 60%
    10:00 +11°C° 0 mm 4 mps 754 mmHg 55%
    11:00 +11°C° 0 mm 4 mps 754 mmHg 50%
    12:00 +12°C° 0 mm 5 mps 754 mmHg 45%
    13:00 +12°C° 0 mm 5 mps 754 mmHg 43%
    14:00 +12°C° 0 mm 5 mps 754 mmHg 41%
    15:00 +11°C° 0 mm 6 mps 754 mmHg 39%
    16:00 +10°C° 0 mm 5 mps 754 mmHg 42%
    17:00 +10°C° 0 mm 4 mps 755 mmHg 46%
    18:00 +8°C° 0 mm 4 mps 755 mmHg 49%
    19:00 +8°C° 0 mm 4 mps 755 mmHg 51%
    20:00 +7°C° 0 mm 4 mps 755 mmHg 53%
    21:00 +6°C° 0 mm 5 mps 756 mmHg 54%
    22:00 +6°C° 0 mm 4 mps 756 mmHg 54%
    23:00 +5°C° 0 mm 4 mps 756 mmHg 55%
    Show more